weather.gov     
National Weather Service

Other Surface Observations
NWS Homepage
This page is being discontinued on March 12, 2014.
The same data is available at this site. Please update your bookmarks.
Thank you, and we apologize for the inconvenience.
Please send an email to SR-SRH.Webmaster@noaa.gov with any concerns.


Current Version
Previous Version:    01  02  03  04  05  06  07  08  09  10  11  12  13  14  15  16  17  18  19  20  21  22  23  24  25  26  27  28  29  30  
   31  32  33  34  35  36  37  38  39  40  41  42  43  44  45  46  47  48  49  50  51  52  53  54  55  56  57  58  59  60  
[Printable]
790
SXUS52 KCHS 301325
OSOCHS

MARINE OBSERVATIONS
NATIONAL WEATHER SERVICE CHARLESTON SC
900 AM EDT THU OCT 30 2014

...DOWNTOWN CHARLESTON AND HARBOR...

CITY           SKY/WX    TMP DP  RH WIND       PRES   REMARKS
WATERFRONT PRK   N/A     61 N/A N/A N16         N/A
FORT JOHNSON   NOT AVBL

...LAKE MOULTRIE...

CITY           SKY/WX    TMP DP  RH WIND       PRES   REMARKS
PINOPOLIS      NOT AVBL

...LAKE AND SUPPLEMENTAL COASTAL OBSERVATIONS...

STATION/POSITION TIME  TEMP    WIND        PRES    WAVE   SWELL
                       AIR SEA DIR/SP/G            HT/PER HT/PER/DIR
                 (UTC) (F)     (DEG/KT/KT) (MB)    (FT/S) (FT/S/D)
FORT PULASKI     1300   65     320/ 10/ 12 1015.6R
SAPELO ISLAND    NOT AVBL
UPR LAKE MARION  NOT AVBL
WINYAH BAY       1300   59      20/  5     1015.0S
LAKE MURRAY      1300   58      10/  2/  7 1016.9R
ACE BASIN NERRS  1300   61      10/  3     1015.0S


...C-MAN AND BUOY OBSERVATIONS...

STATION/POSITION TIME  TEMP    WIND        PRES    WAVE   SWELL
                       AIR SEA DIR/SP/G            HT/PER HT/PER/DIR
                 (UTC) (F)     (DEG/KT/KT) (MB)    (FT/S) (FT/S/D)
BUOY 41004       1300   69 77   10/ 16/ 17 1013.6R   3/ 4
BUOY 41008       1300   70 74  360/ 12/ 14 1014.9R   2/ 3
FOLLY BEACH CMAN 1300   61      10/ 12/ 14 1015.9R
CAPERS NS BUOY   1200   62      20/ 14/ 17   N/A
FRIPP NS BUOY    NOT AVBL
5E ST. MARYS GA  1300      76                N/A     2/ 3
FRYING PAN BUOY  1300   67 72   20/ 16/ 17 1014.6R   3/ 5
BUOY 41025       1300   67      10/ 17/ 19 1014.3R   5/ 6
CAPE LOOKOUT NC  1300   60      20/ 14/ 16 1015.1R
BUOY 41002       1243   76 77  250/ 10/ 12 1014.9R   2/ 6   2/140/ 6
BUOY 41010       1300   78 81  340/  2/  4 1015.1R   4/ 7   3/110/ 7
BUOY 41012       NOT AVBL
ST AUGUSTINE FL  1300   68     290/  5/  6 1016.2R


$$




U.S. Dept. of Commerce
NOAA National Weather Service
1325 East West Highway
Silver Spring, MD 20910
E-mail: w-nws.webmaster@noaa.gov
Page last modified: May 16, 2007
NATIONAL WEATHER SERVICE: for Safety, for Work, for Fun - FOR LIFE